K0BL Weather Reports


time (UTC)temp
F
wind
direction
speed
knots
gust
knots
rain 1hr
in
rain 24hr
in
rain mn
in
humidity
%
barometer
mb
20260506062113 48 309 0.9 2.6 0.00 0.00 0.00 57 1011.1
20260506061613 48 0 0.9 3.5 0.00 0.00 0.00 57 1011.2
20260506061111 48 311 1.7 3.5 0.00 0.00 0.00 57 1011.1
20260506060610 48 300 1.7 3.5 0.00 0.00 0.00 57 1011.2
20260506060108 49 163 0.9 3.5 0.00 0.00 0.00 57 1011.0
20260506051059 49 287 0.9 2.6 0.00 0.00 0.00 55 1010.4
20260506050557 50 233 0.9 2.6 0.00 0.00 0.00 56 1010.4
20260506044551 51 262 0.9 3.5 0.00 0.00 0.00 53 1010.2
20260506044051 51 238 0.9 3.5 0.00 0.00 0.00 53 1010.1
20260506043551 51 278 1.7 3.5 0.00 0.00 0.00 51 1010.0
20260506043051 51 253 1.7 3.5 0.00 0.00 0.00 51 1010.0
20260506042051 52 280 1.7 3.5 0.00 0.00 0.00 50 1009.9
20260506040551 52 351 1.7 3.5 0.00 0.00 0.00 49 1009.8
20260506040051 53 272 1.7 5.2 0.00 0.00 0.00 49 1009.6
20260506035551 53 305 1.7 5.2 0.00 0.00 0.00 48 1009.5
20260506035049 53 312 1.7 5.2 0.00 0.00 0.00 48 1009.5
20260506034547 53 297 2.6 6.1 0.00 0.00 0.00 48 1009.5
20260506034047 53 309 2.6 6.1 0.00 0.00 0.00 48 1009.4
20260506033047 53 269 3.5 7.0 0.00 0.00 0.00 48 1009.3
20260506032547 53 332 2.6 6.1 0.00 0.00 0.00 48 1009.3
20260506032048 53 293 2.6 5.2 0.00 0.00 0.00 50 1009.4
20260506031547 53 260 2.6 5.2 0.00 0.00 0.00 50 1009.3
20260506031048 53 276 2.6 5.2 0.00 0.00 0.00 50 1009.1
20260506030547 53 269 1.7 3.5 0.00 0.00 0.00 51 1009.0
20260506030047 53 144 1.7 3.5 0.00 0.00 0.00 52 1009.0
20260506025547 53 240 0.9 3.5 0.00 0.00 0.00 55 1009.0
20260506024548 53 271 1.7 2.6 0.00 0.00 0.00 58 1009.1
20260506024044 53 76 1.7 2.6 0.00 0.00 0.00 59 1009.1
20260506023543 53 66 1.7 2.6 0.00 0.00 0.00 58 1009.0
20260506022544 53 194 1.7 2.6 0.00 0.00 0.00 58 1008.9
20260506022044 53 215 1.7 2.6 0.00 0.00 0.00 59 1008.9
20260506021544 53 240 1.7 1.7 0.00 0.00 0.00 60 1008.9
20260506021044 53 237 1.7 1.7 0.00 0.00 0.00 61 1008.8
20260506020544 53 208 1.7 1.7 0.00 0.00 0.00 60 1008.8
20260506020044 53 223 1.7 1.7 0.00 0.00 0.00 60 1008.7
20260506015045 54 217 1.7 1.7 0.00 0.00 0.00 59 1008.5
20260506014544 54 219 1.7 1.7 0.00 0.00 0.00 59 1008.4
20260506014044 54 227 1.7 1.7 0.00 0.00 0.00 59 1008.4
20260506013544 54 244 1.7 2.6 0.00 0.00 0.00 59 1008.3
20260506013041 54 244 1.7 2.6 0.00 0.00 0.00 58 1008.2
20260506012541 54 209 1.7 2.6 0.00 0.00 0.00 57 1008.2
20260506012042 54 221 1.7 2.6 0.00 0.00 0.00 58 1008.1
20260506011542 55 253 1.7 2.6 0.00 0.00 0.00 57 1008.1
20260506011041 55 207 1.7 2.6 0.00 0.00 0.00 57 1008.1
20260506010542 55 219 1.7 2.6 0.00 0.00 0.00 56 1008.0
20260506005542 55 235 1.7 2.6 0.00 0.00 0.00 56 1008.0
20260506005042 55 217 0.9 2.6 0.00 0.00 0.00 55 1008.0
20260506004543 56 237 0.9 2.6 0.00 0.00 0.00 55 1007.8
20260506004043 56 234 1.7 2.6 0.00 0.00 0.00 54 1007.8
20260506003042 56 46 1.7 2.6 0.00 0.00 0.00 54 1007.6
20260506002543 56 219 1.7 2.6 0.00 0.00 0.00 54 1007.7
20260506001537 57 225 1.7 3.5 0.00 0.00 0.00 52 1007.7
20260506001037 57 216 1.7 2.6 0.00 0.00 0.00 52 1007.8
20260506000534 57 211 1.7 2.6 0.00 0.00 0.00 53 1007.8
20260505235534 57 46 0.9 1.7 0.00 0.00 0.00 50 1007.8
20260505235034 57 47 1.7 4.3 0.00 0.00 0.00 51 1007.7
20260505234534 57 43 1.7 4.3 0.00 0.00 0.00 49 1007.7
20260505234035 57 328 2.6 4.3 0.00 0.00 0.00 50 1007.7
20260505233534 57 357 2.6 4.3 0.00 0.00 0.00 50 1007.7
20260505233034 57 196 2.6 5.2 0.00 0.00 0.00 49 1007.8
20260505232534 57 234 3.5 5.2 0.00 0.00 0.00 48 1007.6
20260505232032 58 204 1.7 5.2 0.00 0.00 0.00 48 1007.7
20260505231532 58 43 1.7 2.6 0.00 0.00 0.00 48 1007.7
20260505231032 58 116 0.9 2.6 0.00 0.00 0.00 47 1007.7
20260505230532 58 213 1.7 3.5 0.00 0.00 0.00 48 1007.7
20260505225532 58 138 1.7 2.6 0.00 0.00 0.00 48 1007.8
20260505225032 58 53 1.7 2.6 0.00 0.00 0.00 46 1007.8
20260505224023 58 215 1.7 2.6 0.00 0.00 0.00 47 1007.8
20260505223523 58 244 0.9 2.6 0.00 0.00 0.00 47 1007.8
20260505222523 58 41 1.7 2.6 0.00 0.00 0.00 47 1007.7
20260505221518 0 38 1.7 3.5 0.00 0.00 0.00
20260505221016 57 55 1.7 3.5 0.00 0.00 0.00 48 1007.8
20260505220453 57 51 1.7 8.7 0.00 0.00 0.00 48 1007.8
20260505215954 57 79 1.7 8.7 0.00 0.00 0.00 48 1007.8
20260505215447 57 168 1.7 7.0 0.00 0.00 0.00 47 1007.9
20260505214948 58 161 2.6 6.1 0.00 0.00 0.00 47 1008.0
20260505214445 57 198 2.6 6.1 0.00 0.00 0.00 49 1008.0
20260505213945 57 233 3.5 7.0 0.00 0.00 0.00 46 1008.1
20260505213445 57 242 3.5 7.8 0.00 0.00 0.00 47 1008.1
20260505212944 57 241 3.5 7.8 0.00 0.00 0.00 46 1008.2
20260505212445 57 238 3.5 7.8 0.00 0.00 0.00 47 1008.3
20260505211945 57 229 3.5 8.7 0.00 0.00 0.00 46 1008.4
20260505210945 56 239 3.5 7.8 0.00 0.00 0.00 46 1008.4
20260505210445 56 239 3.5 8.7 0.00 0.00 0.00 46 1008.5
20260505205946 56 241 3.5 8.7 0.00 0.00 0.00 46 1008.5
20260505205445 56 237 3.5 7.8 0.00 0.00 0.00 47 1008.5
20260505204945 56 241 3.5 7.8 0.00 0.00 0.00 46 1008.7
20260505203943 56 245 3.5 7.8 0.00 0.00 0.00 46 1008.7
20260505203440 56 245 3.5 7.0 0.00 0.00 0.00 46 1008.8
20260505202440 56 239 3.5 7.8 0.00 0.00 0.00 46 1008.9
20260505201937 56 240 3.5 7.8 0.00 0.00 0.00 47 1008.9
20260505201437 56 243 3.5 8.7 0.00 0.00 0.00 46 1008.9
20260505200936 56 243 3.5 8.7 0.00 0.00 0.00 47 1009.0
20260505200437 56 233 3.5 7.8 0.00 0.00 0.00 46 1009.0
20260505195437 57 249 3.5 7.8 0.00 0.00 0.00 45 1009.0
20260505194935 57 250 3.5 11.3 0.00 0.00 0.00 46 1008.9
20260505194436 57 234 3.5 11.3 0.00 0.00 0.00 46 1009.0
20260505193936 56 37 3.5 7.8 0.00 0.00 0.00 46 1009.1
20260505193434 56 244 3.5 6.1 0.00 0.00 0.00 47 1009.1
20260505192934 56 235 3.5 6.1 0.00 0.00 0.00 47 1009.2
20260505192436 56 252 3.5 6.1 0.00 0.00 0.00 47 1009.2
20260505191935 56 283 3.5 6.1 0.00 0.00 0.00 46 1009.4
20260505191432 56 243 3.5 6.1 0.00 0.00 0.00 46 1009.4
20260505190932 56 255 3.5 6.1 0.00 0.00 0.00 48 1009.4
20260505190430 55 254 3.5 5.2 0.00 0.00 0.00 47 1009.4
20260505185929 56 58 3.5 5.2 0.00 0.00 0.00 47 1009.4
20260505185429 56 239 2.6 7.0 0.00 0.00 0.00 47 1009.4
20260505184929 56 258 3.5 7.0 0.00 0.00 0.00 46 1009.4
20260505184429 56 237 3.5 6.1 0.00 0.00 0.00 46 1009.5
20260505183929 56 255 3.5 6.1 0.00 0.00 0.00 47 1009.5
20260505183429 56 244 3.5 6.1 0.00 0.00 0.00 47 1009.8
20260505182929 56 295 3.5 6.1 0.00 0.00 0.00 47 1009.8
20260505182429 55 20 2.6 5.2 0.00 0.00 0.00 48 1009.6
20260505181929 55 2 2.6 4.3 0.00 0.00 0.00 48 1009.5
20260505181430 55 250 2.6 7.0 0.00 0.00 0.00 49 1009.5
20260505180929 55 296 2.6 7.0 0.00 0.00 0.00 50 1009.6
20260505180427 56 340 1.7 6.1 0.00 0.00 0.00 48 1009.5
20260505175927 55 257 1.7 6.1 0.00 0.00 0.00 48 1009.6
20260505174927 55 269 2.6 7.8 0.00 0.00 0.00 48 1010.0
20260505174427 55 280 1.7 4.3 0.00 0.00 0.00 49 1010.0
20260505173926 55 278 2.6 6.1 0.00 0.00 0.00 49 1009.8
20260505173427 55 293 2.6 6.1 0.00 0.00 0.00 49 1009.8
20260505172927 55 224 2.6 6.1 0.00 0.00 0.00 49 1010.0
20260505172427 55 285 1.7 6.1 0.00 0.00 0.00 49 1010.0
20260505171427 55 80 2.6 5.2 0.00 0.00 0.00 49 1010.1
20260505170928 55 264 2.6 5.2 0.00 0.00 0.00 48 1010.1
20260505170429 55 343 1.7 5.2 0.00 0.00 0.00 48 1010.3
20260505165925 55 71 2.6 6.1 0.00 0.00 0.00 49 1010.2
20260505165424 55 264 2.6 6.1 0.00 0.00 0.00 49 1010.1
20260505164925 54 49 1.7 3.5 0.00 0.00 0.00 49 1010.0
20260505164425 54 228 2.6 6.1 0.00 0.00 0.00 49 1010.0
20260505163422 55 287 2.6 5.2 0.00 0.00 0.00 48 1009.9
20260505162921 55 293 2.6 5.2 0.00 0.00 0.00 47 1009.9
20260505162419 56 51 1.7 4.3 0.00 0.00 0.00 47 1009.8
20260505160919 55 297 1.7 6.1 0.00 0.00 0.00 48 1009.9
20260505153235 53 46 2.6 4.3 0.00 0.00 0.00 55 1009.5
20260505152735 53 252 2.6 4.3 0.00 0.00 0.00 54 1009.5
20260505152235 52 271 1.7 4.3 0.00 0.00 0.00 54 1009.5
20260505151720 52 276 1.7 3.5 0.00 0.00 0.00 54 1009.5
20260505151147 52 260 2.6 3.5 0.00 0.00 0.00 55 1009.4
20260505150647 52 268 1.7 3.5 0.00 0.00 0.00 54 1009.5
20260505150140 52 159 1.7 3.5 0.00 0.00 0.00 53 1009.5
20260505140636 52 224 1.7 4.3 0.00 0.00 0.00 58 1008.7
20260505140136 52 256 1.7 5.2 0.00 0.00 0.00 56 1008.6
20260505130127 50 57 1.7 3.5 0.00 0.00 0.00 67 1007.9
20260505124628 49 67 1.7 3.5 0.00 0.00 0.00 69 1007.9
20260505124128 49 74 1.7 3.5 0.00 0.00 0.00 68 1007.9
20260505123627 48 72 0.9 2.6 0.00 0.00 0.00 70 1008.1
20260505123128 48 84 0.9 1.7 0.00 0.00 0.00 72 1008.4
20260505122628 48 104 0.9 2.6 0.00 0.00 0.00 72 1008.6
20260505122125 48 0 0.9 2.6 0.00 0.00 0.00 71 1008.7
20260505121625 48 0 0.9 1.7 0.00 0.00 0.00 74 1008.7
20260505121125 48 162 0.9 2.6 0.00 0.00 0.00 74 1008.7
20260505120625 48 0 0.0 2.6 0.00 0.00 0.00 75 1008.8
20260505120123 48 193 0.0 2.6 0.00 0.00 0.00 77 1008.9
20260505115623 47 184 0.0 1.7 0.00 0.00 0.00 77 1008.8
20260505115119 47 83 0.0 1.7 0.00 0.00 0.00 79 1008.9
20260505114619 47 0 0.9 1.7 0.00 0.00 0.00 79 1009.0
20260505114117 48 260 0.9 1.7 0.00 0.00 0.00 77 1009.0
20260505113117 48 218 0.9 1.7 0.00 0.00 0.00 73 1008.7
20260505112617 47 211 0.9 1.7 0.00 0.00 0.00 71 1008.7
20260505112118 47 188 0.0 1.7 0.00 0.00 0.00 72 1008.7
20260505111117 48 78 0.0 1.7 0.00 0.00 0.00 76 1008.9
20260505102107 49 97 0.9 2.6 0.00 0.00 0.00 67 1008.1
20260505101604 49 338 0.9 2.6 0.00 0.00 0.00 66 1008.0
20260505101104 49 277 0.9 2.6 0.00 0.00 0.00 63 1007.8
20260505100604 50 305 0.9 2.6 0.00 0.00 0.00 64 1007.4
20260505100048 50 91 0.9 2.6 0.00 0.00 0.00 64 1007.1
20260505095544 50 50 0.9 3.5 0.00 0.00 0.00 64 1006.9
20260505095042 50 27 0.9 4.3 0.00 0.00 0.00 61 1006.8
20260505094543 51 68 0.9 4.3 0.00 0.00 0.00 60 1006.9
20260505094042 51 45 1.7 3.5 0.00 0.00 0.00 60 1006.8
20260505093535 51 277 0.9 2.6 0.00 0.00 0.00 60 1006.9
20260505091443 51 8 1.7 3.5 0.00 0.00 0.00 60 1006.6
20260505090932 51 264 1.7 4.3 0.00 0.00 0.00 60 1006.6
20260505085309 52 51 1.7 3.5 0.00 0.00 0.00 55 1006.8
20260505084752 52 49 1.7 3.5 0.00 0.00 0.00 55 1006.8
20260505084240 52 275 1.7 3.5 0.00 0.00 0.00 55 1006.3
20260505083737 52 283 1.7 2.6 0.00 0.00 0.00 55 1006.4
20260505083239 52 351 1.7 2.6 0.00 0.00 0.00 54 1006.4
20260505082737 52 243 0.9 2.6 0.00 0.00 0.00 54 1006.6
20260505082232 52 223 1.7 3.5 0.00 0.00 0.00 55 1006.3
20260505081723 52 235 0.9 3.5 0.00 0.00 0.00 54 1005.9
20260505081223 52 0 0.9 2.6 0.00 0.00 0.00 54 1005.6
20260505080721 52 254 0.9 2.6 0.00 0.00 0.00 53 1006.1
20260505080212 53 252 0.9 2.6 0.00 0.00 0.00 53 1006.1
20260505075711 53 0 0.9 2.6 0.00 0.00 0.00 52 1006.5
20260505075202 53 0 1.7 5.2 0.00 0.00 0.00 52 1006.7
20260505074159 53 332 1.7 3.5 0.00 0.00 0.00 51 1006.8
20260505073659 53 283 1.7 3.5 0.00 0.00 0.00 51 1006.8
20260505073153 53 53 0.9 2.6 0.00 0.00 0.00 52 1006.7
20260505072153 53 245 2.6 8.7 0.00 0.00 0.00 52 1006.7
20260505071650 53 326 1.7 4.3 0.00 0.00 0.00 52 1006.5
20260505071146 53 30 1.7 3.5 0.00 0.00 0.00 53 1006.2